Location: Gaast
(52.9002°N, 5.8891°E)
Time: 11:32:58
(UTC+00:00)

Cosmos 220 Rocket - Pass Details

Date: 18 November 2025
Orbit: 541 x 577 km, 74.0° (Epoch: 10 December)

Event Time Altitude Azimuth Distance (km) Brightness Sun altitude
Rises 18:04:47 0° 334° (NNW) 2,748 7.7 -21.8°
Reaches altitude 10° 18:06:58 10° 336° (NNW) 1,855 6.7 -22.1°
Enters shadow 18:10:55 78° 20° (NNE) 582 3.7 -22.7°
